Location: St. Louis
(38.6270°N, 90.1994°W)
Time: 08:09:24
(UTC-06:00)

SR - Pass Details

Date: 07 December 2021
Orbit: 582 x 872 km, 66.7° (Epoch: 21 January)

Event Time Altitude Azimuth Distance (km) Brightness Sun altitude
Rises 08:05:50 0° 324° (NW) 2,845 ? 9.0°
Reaches altitude 10° 08:08:06 10° 318° (NW) 1,963 ? 9.3°
Maximum altitude 08:12:18 45° 246° (WSW) 865 ? 9.9°
Drops below altitude 10° 08:16:45 10° 174° (S) 2,086 ? 10.6°
Sets 08:19:13 0° 168° (SSE) 3,045 ? 11.0°
